Find Starlink 32310

NORAD ID: 61662 Int'l Des: 2024-193 Owner: SPXS Country: US Constellation: starlink operational
LEOCIRCULAR

現在のビュー

3D地球を読み込み中...

About Starlink 32310

Starlink 32310 (NORAD 61662) is a starlink constellation satellite (v2 mini) launched Oct 26, 2024 by SPXS of US. It operates in LEO, CIRCULAR orbit with a mass of 730.00 kg.

次回通過

Passes for default location (London). Set your location on the main map for personalized predictions.

高度履歴

Loading altitude history...

軌道要素

1 61662U 24193B 26264.28509635 -.00000916 00000-0 -17760-4 0 9991
2 61662 53.1596 261.0365 0001181 96.6830 263.4306 15.31704352106493
Epoch: Sep 21, 2026 • Age: 7 hours

現在のステータス

高度 471.0 km
遠地点 / 近地点 N/A
速度 7.63 km/s
衛星直下点 23.47°N, 146.02°W
打ち上げ日 Oct 26, 2024
運用期間 1.9 years
タイプ internet

技術仕様

分類 Payload
質量 730.00 kg
乾燥質量 700.00 kg
長さ 0.30 m
スパン 29.00 m
形状 ? Box + pan
製造者 SPXS
バスタイプ Starlink V2M
フェーズステータス In Orbit
所有者/国 SPXS/US

Most Searched